This is the latest recevied weather packets stored in our database for station/object IZ5MJO-13. If no packets are shown the sender has not sent any weather packets the latest 10 day(s).
| Time | Temp. | Humidity | Pressure | Rain* | Wind** | Luminosity | Snow |
|---|---|---|---|---|---|---|---|
| 1787590964 | 38.33° C | 28% | 1005.7 hPa | - | - | - | - |
| 1787590574 | 31.11° C | 33% | 1004.9 hPa | - | - | - | - |
| 1787589674 | 33.89° C | 30% | 1004.7 hPa | - | - | - | - |
| 1787588774 | 34.44° C | 29% | 1004.8 hPa | - | - | - | - |
| 1787587873 | 35° C | 28% | 1004.9 hPa | - | - | - | - |
| 1787586973 | 35.56° C | 27% | 1005 hPa | - | - | - | - |
| 1787586332 | 37.78° C | 29% | 1005.7 hPa | - | - | - | - |
| 1787586326 | 37.78° C | 24% | 1005.9 hPa | - | - | - | - |
| 1787586295 | 36.67° C | 27% | 1006.2 hPa | - | - | - | - |
| 1787586072 | 36.11° C | 26% | 1005 hPa | - | - | - | - |
| 1787585172 | 36.67° C | 26% | 1005.1 hPa | - | - | - | - |
| 1787584272 | 36.67° C | 25% | 1005.3 hPa | - | - | - | - |
| 1787583372 | 36.67° C | 25% | 1005.4 hPa | - | - | - | - |
| 1787582472 | 38.89° C | 26% | 1005.1 hPa | - | - | - | - |
| 1787581571 | 38.89° C | 26% | 1005.2 hPa | - | - | - | - |
| 1787580671 | 38.89° C | 26% | 1005.4 hPa | - | - | - | - |
| 1787579771 | 38.89° C | 27% | 1005.6 hPa | - | - | - | - |
| 1787578871 | 38.33° C | 28% | 1005.6 hPa | - | - | - | - |
| 1787577970 | 38.33° C | 28% | 1005.7 hPa | - | - | - | - |
| 1787577070 | 37.78° C | 29% | 1005.7 hPa | - | - | - | - |
| 1787576170 | 37.78° C | 24% | 1005.9 hPa | - | - | - | - |
| 1787575270 | 36.67° C | 27% | 1006.2 hPa | - | - | - | - |
| 1787575218 | 36.67° C | 28% | 1006.1 hPa | - | - | - | - |
| 1787575151 | 36.67° C | 27% | 1006 hPa | - | - | - | - |
| 1787575070 | 36.67° C | 30% | 1006.1 hPa | - | - | - | - |
* Rain since midnight (hover to see other rain measurements)
** Current wind speed in m/s (hover to see current wind gust speed)